AirNav   Everest Fuels
 
 979 users online  

AL52 USA Medical Center Heliport
Mobile, Alabama, USA

GOING TO MOBILE?


FAA INFORMATION EFFECTIVE 21 MAY 2020

Location

FAA Identifier: AL52
Lat/Long: 30-42-28.7400N 088-05-54.4900W
30-42.479000N 088-05.908167W
30.7079833,-88.0984694
(estimated)
Elevation: 28 ft. / 9 m (estimated)
Variation: 02E (1985)
Time zone: UTC -5 (UTC -6 during Standard Time)
Zip code: 36607

Heliport Operations

Heliport use: Private use, MEDICAL.
Activation date: 09/1984
Control tower: no
ARTCC: HOUSTON CENTER
FSS: ANNISTON FLIGHT SERVICE STATION
Attendance: CONTINUOUS
Wind indicator: lighted
Segmented circle: no
Lights: SS-SR

Heliport Communications

WX ASOS at BFM (5 nm S): PHONE 251-431-6762
WX ASOS at MOB (8 nm W): 124.75 (251-607-0469)
WX AWOS-3PT at CQF (19 nm SE): 118.425 (251-928-3242)

Nearby radio navigation aids

VOR radial/distance  VOR name  Freq  Var
BFMr335/6.1BROOKLEY VORTAC112.8004E
SJIr090/13.5SEMMES VORTAC115.3005E
GCVr135/30.8GREENE COUNTY VORTAC115.7005E

 
NDB name  Hdg/Dist  Freq  Var  ID
WISLE108/11.024801WMOB -- --- -...

Heliport Services

Runway Information

Helipad H1

Dimensions: 60 x 60 ft. / 18 x 18 m
Surface: concrete
Runway edge lights: PERI
Latitude: 30-42.479000N
Longitude: 088-05.908167W
Elevation: 28.0 ft.
Traffic pattern: leftleft

Heliport Ownership and Management from official FAA records

Ownership: Publicly-owned
Owner: UNIV OF SO ALABAMA MED CENTER
2451 FILLINGIM ST
MOBILE, AL 36617
Phone 251-471-7100
Manager: LAWRENCE GARDNER
2451 FILLINGIM ST
MOBILE, AL 36617
Phone (251) 471-7193

Additional Remarks

FOR CD CTC MOBILE APCH AT 251-662-6236, WHEN APCH CLSD CTC HOUSTON ARTCC AT 281-230-5622.

Instrument Procedures

There are no published instrument procedures at AL52.

Some nearby airports with instrument procedures:

KBFM - Mobile Downtown Airport (5 nm S)
KMOB - Mobile Regional Airport (8 nm W)
2R5 - St Elmo Airport (15 nm SW)
1R8 - Bay Minette Municipal Airport (17 nm NE)
KCQF - H L Sonny Callahan Airport (19 nm SE)
 
Loc | Ops | Rwys | IFR | FBO | Links
Com | Nav | Svcs | Stats | Notes

Continental Services
AirBoss

 
Area around AL52 (USA Medical Center Heliport)
 
Road maps at: MapQuest Bing Google
 
Aerial photo
No photo
 
Sectional chart

 
Airport distance calculator
Flying to USA Medical Center Heliport? Find the distance to fly.

From to AL52

Sunrise and sunset
Times for 28-May-2020
 Local
(UTC-5)
 Zulu
(UTC)
Morning civil twilight05:2510:25
Sunrise05:5210:52
Sunset19:4800:48
Evening civil twilight20:1501:15

Current date and time
Zulu (UTC)  29-May-2020 01:50:12
Local (UTC-5)  28-May-2020 20:50:12
 
METAR
KBFM 
6nm S 
290119Z 00000KT 10SM FEW002 SCT019 25/22 A2999 RMK AO2 T02500222
KMOB 
8nm W 
290056Z 19003KT 10SM FEW050 SCT150 OVC250 23/21 A2999 RMK AO2 SLP152 T02330206
KCQF 
19nm SE 
290135Z AUTO 00000KT 10SM SCT017 SCT024 23/22 A2999 RMK AO2
TAF
KBFM 
6nm S 
281722Z 2818/2918 17006KT P6SM FEW035 FEW150 SCT250 FM290600 15004KT P6SM VCSH SCT040 BKN100 TEMPO 2908/2912 4SM TSRA BKN025CB FM291200 13004KT 6SM -TSRA BKN025CB
KMOB 
8nm W 
281722Z 2818/2918 22007KT P6SM FEW030 FEW150 SCT250 FM290600 17005KT P6SM VCSH SCT040 BKN100 TEMPO 2908/2912 4SM TSRA BKN025CB FM291200 17004KT 6SM -TSRA BKN025CB
NOTAMs
Click for the latest NOTAMs
NOTAMs are issued by the DoD/FAA and will open in a separate window not controlled by AirNav.

 

 
 

Would you like to see your business listed on this page?

 If your business provides an interesting product or service to pilots, flight crews, aircraft, or users of the USA Medical Center Heliport, you should consider listing it here.  To start the listing process, click on the button below
 
Add a business
 

Other Pages about USA Medical Center Heliport

Update a link
 
Copyright © AirNav, LLC. All rights reserved. Privacy Policy  Contact